User: anonymous   Login
Location: Bismarck
(46.7731°N, 100.8200°W)
Time: 14:32:11
(UTC-05:00)
Language:

Cosmos 1125 Rocket - Orbit

View from above orbital plane
View from above orbital plane
View from above satellite
View from above satellite

Ground track
Ground track

The orbit data is extracted from the following two-line orbital elements,

1 11511U 79078B   17264.11157406  .00000079  00000-0  35731-4 0  9994
2 11511  74.0364 138.9945 0015663 355.6891   4.4125 14.36787823992399
Epoch (UTC): 21 September 2017 02:40:39
Eccentricity: 0.0015663
inclination: 74.0364°
perigee height: 758 km
apogee height: 780 km
right ascension of ascending node: 138.9945°
argument of perigee: 355.6891°
revolutions per day: 14.36787823
mean anomaly at epoch: 4.4125°
orbit number at epoch: 99239

The dashed part of the orbit path shows where the satellite is in the earth's shadow,  

DLR